User: anonymous   Login
Location: Unspecified
(0.0000°N, 0.0000°E)
Time: 03:22:56
(UTC+02:00)
Language:

SWIFT - Orbit

View from above orbital plane
View from above orbital plane
View from above satellite
View from above satellite

Ground track
Ground track

The orbit data is extracted from the following two-line orbital elements,

1 28485U 04047A   16121.41443753  .00001510  00000-0  76819-4 0  9996
2 28485  20.5557 139.0427 0011829  66.9345 293.2334 15.03071090626009
Epoch (UTC): 30 April 2016 09:56:47
Eccentricity: 0.0011829
inclination: 20.5557°
perigee height: 549 km
apogee height: 565 km
right ascension of ascending node: 139.0427°
argument of perigee: 66.9345°
revolutions per day: 15.03071090
mean anomaly at epoch: 293.2334°
orbit number at epoch: 62600

The dashed part of the orbit path shows where the satellite is in the earth's shadow,  

DLR